Historique des stations

Station météo de Ambillou

Altitude de la station : 68 m







Données météorologiques pour le 05/12/2021
Date
Heure
Températures Humidité Point de rosée Vitesse
du vent
Direction Rafales Windchill Pression Pluviométrie
Cumul
Date
Heure
Températures Humidité Point de rosée Vitesse
du vent
Direction Rafales Windchill Pression Pluviométrie
Cumul
05/12/2021 12:185.2 °C85 %2.9 °C-ONO27 km/h2.61007 hPa0.0 mm
05/12/2021 12:035.4 °C84 %2.9 °C-SO27 km/h2.51007 hPa0.0 mm
05/12/2021 11:485.3 °C85 %3.0 °C-OSO27 km/h2.41007 hPa0.0 mm
05/12/2021 11:335.0 °C86 %2.9 °C-ONO27 km/h2.21007 hPa0.0 mm
05/12/2021 11:184.3 °C87 %2.3 °C-O26 km/h1.51007 hPa0.0 mm
05/12/2021 11:033.9 °C89 %2.3 °C-O26 km/h1.31007 hPa0.0 mm
05/12/2021 10:483.5 °C90 %2.0 °C-ONO23 km/h1.01007 hPa0.0 mm
05/12/2021 10:332.9 °C90 %1.4 °C-O23 km/h0.71007 hPa0.0 mm
05/12/2021 10:182.4 °C91 %1.1 °C-O23 km/h0.31007 hPa0.0 mm
05/12/2021 10:032.1 °C91 %0.8 °C-OSO23 km/h-0.31007 hPa0.0 mm
05/12/2021 09:481.9 °C91 %0.6 °C-O23 km/h-0.51007 hPa0.0 mm
05/12/2021 09:331.9 °C91 %0.6 °C-OSO23 km/h-0.71007 hPa0.0 mm
05/12/2021 09:171.8 °C91 %0.5 °C-O23 km/h-0.61007 hPa0.0 mm
05/12/2021 09:021.8 °C91 %0.5 °C-OSO23 km/h-1.31007 hPa0.0 mm
05/12/2021 08:471.7 °C91 %0.4 °C-OSO23 km/h-1.31006 hPa0.0 mm
05/12/2021 08:321.4 °C91 %0.1 °C-OSO21 km/h-1.31006 hPa0.0 mm
05/12/2021 08:171.3 °C91 %0.0 °C-OSO21 km/h-1.21006 hPa0.0 mm
05/12/2021 08:021.4 °C91 %0.1 °C-OSO21 km/h-1.11006 hPa0.0 mm
05/12/2021 07:481.4 °C91 %0.1 °C-NO19 km/h-1.31006 hPa0.0 mm
05/12/2021 07:331.5 °C91 %0.2 °C-O19 km/h-1.11006 hPa0.0 mm
05/12/2021 07:171.4 °C91 %0.1 °C-OSO19 km/h-0.61006 hPa0.0 mm
05/12/2021 07:021.5 °C91 %0.2 °C-ONO19 km/h-0.41006 hPa0.0 mm
05/12/2021 06:481.4 °C91 %0.1 °C-OSO19 km/h-0.61006 hPa0.0 mm
05/12/2021 06:351.4 °C91 %0.1 °C-OSO19 km/h0.11006 hPa0.0 mm
05/12/2021 06:181.5 °C91 %0.2 °C-OSO19 km/h0.21006 hPa0.0 mm
05/12/2021 06:031.6 °C91 %0.3 °C-O19 km/h-0.31005 hPa0.0 mm
05/12/2021 05:481.6 °C91 %0.3 °C-O19 km/h0.01005 hPa0.0 mm
05/12/2021 05:331.5 °C91 %0.2 °C-OSO19 km/h0.01005 hPa0.0 mm
05/12/2021 05:181.7 °C90 %0.2 °C-O19 km/h0.41005 hPa0.0 mm
05/12/2021 05:031.8 °C90 %0.3 °C-OSO19 km/h0.11005 hPa0.0 mm
05/12/2021 04:481.9 °C90 %0.4 °C-OSO19 km/h0.01005 hPa0.0 mm
05/12/2021 04:352.2 °C90 %0.7 °C-O19 km/h0.91005 hPa0.0 mm
05/12/2021 04:182.4 °C90 %0.9 °C-O19 km/h1.21005 hPa0.0 mm
05/12/2021 04:032.6 °C90 %1.1 °C-OSO19 km/h1.31005 hPa0.0 mm
05/12/2021 03:482.6 °C90 %1.1 °C-OSO19 km/h0.81005 hPa0.0 mm
05/12/2021 03:332.8 °C90 %1.3 °C-O19 km/h0.81005 hPa0.0 mm
05/12/2021 03:182.8 °C90 %1.3 °C-S19 km/h0.31005 hPa0.0 mm
05/12/2021 03:032.9 °C90 %1.4 °C-O19 km/h0.21005 hPa0.0 mm
05/12/2021 02:482.8 °C90 %1.3 °C-OSO16 km/h0.71005 hPa0.0 mm
05/12/2021 02:332.7 °C90 %1.2 °C-OSO16 km/h1.41005 hPa0.0 mm
05/12/2021 02:182.7 °C90 %1.2 °C-SO16 km/h1.61005 hPa0.0 mm
05/12/2021 02:032.7 °C90 %1.2 °C-SO16 km/h0.91006 hPa0.0 mm
05/12/2021 01:472.4 °C90 %0.9 °C-OSO16 km/h0.81006 hPa0.0 mm
05/12/2021 01:332.4 °C90 %0.9 °C-OSO16 km/h0.61006 hPa0.0 mm
05/12/2021 00:512.4 °C90 %0.9 °C-SO16 km/h0.61006 hPa0.0 mm
05/12/2021 00:322.5 °C90 %1.0 °C-SO16 km/h0.71006 hPa0.0 mm
05/12/2021 00:172.5 °C90 %1.0 °C-SO15 km/h0.71006 hPa0.0 mm
05/12/2021 00:022.5 °C90 %1.0 °C-OSO13 km/h0.71006 hPa0.0 mm


Minima :

Température : 1.3 °C
Humidité : 84 %
Point de rosée : 0.0 °C
Vent moyen : - km/h
Windchill : -1.3
Pression atm. : 1005 hPa
Maxima :

Température : 5.4 °C
Humidité : 91 %
Point de rosée : 3.0 °C
Vent moyen : 0 km/h
Windchill : 2.6
Pression atm. : 1007 hPa
Rafales max : 27 km/h
Cumul de pluie sur 24H : 0 mm

Ambillou est une commune du département Indre-et-Loire (37).
La station météorologique du réseau de l'association la plus proche de Ambillou n'a pas encore été identifiée.



Icône Facebook Association Météo Centre Icône Twitter Association Météo Centre Icône Chaîne Youtube Association Météo Centre Icône contact Association Météo Centre Icône Insta Association Météo Centre